User: anonymous   Login
Location: Unspecified
(0.0000°N, 0.0000°E)
Time: 09:03:01
(UTC+00:00)
Language:

SKYNET 5B - Orbit

View from above orbital plane
View from above orbital plane
View from above satellite
View from above satellite

Ground track
Ground track

The orbit is defined by the following mean orbital elements,

1 32294U          26145.51739174 +.00000000 +00000-0 +00000-0 0 00008
2 32294   5.1961  73.7679 0003898 345.1066  35.5938  1.00269130    01
Epoch (UTC): 25 May 2026 12:25:02
Eccentricity: 0.0003898
inclination: 5.1961°
perigee height: 35771 km
apogee height: 35804 km
right ascension of ascending node: 73.7679°
argument of perigee: 345.1066°
revolutions per day: 1.00269130
mean anomaly at epoch: 35.5938°

The dashed part of the orbit path shows where the satellite is in the earth's shadow,  

DLR